STARLINK-1725 (46334 NORAD) Tracking and Keplerian Element Data

This shows tracking and keplerian element data for the satellite.

Feedback or suggestion? Click here.




ElementValue
Catalog46334
NameSTARLINK-1725
Epoch Orbit178
Epoch Day268.91668981
Epoch Year2020
RAAN324.5161
Inclination53.0002
Eccentricity0.0001372
Argument of Perigee61.0982
Mean Anonmoly139.5069
Mean Motion15.62732191
Decay Rate0.00024243
L11 46334U 20062K 20268.91668981 .00024243 00000-0 27002-3 0 9995
L22 46334 53.0002 324.5161 0001372 61.0982 139.5069 15.62732191 1789

Live tracking and technical data element details for STARLINK-1725 (NORAD 46334). STARLINK-1725 can be tracked NOW for your location showing map with azimuth and elevation plus other details from your city location.

Track the satellite on the map from your city or location and see movement details for azimuth, elevation, latitude, longitude, range, height, and movement on the map or in text.







IsCatalogInMostPopularTable: catalog: 46334, numindb: 3
Update: records affected: 1



GetName: 46334 STARLINK-1725

Hit Count: updated at: Sat, 26 Sep 2020 14:22:52 GMT